Home   Weather   Alsfeld   Past weeks

Flag for Germany Past Weather in Alsfeld, Hesse, Germany — Yesterday and Last 2 Weeks

Now
35 °F

Passing clouds.


Feels Like: 31 °F
Forecast: 34 / 53 °F
Wind: 5 mph from Northwest

Location: Fritzlar

Current Time: Apr 27, 2017 at 5:53:24 am

Latest Report: Apr 27, 2017 at 4:00 am


Visibility: 11 mi

Pressure: 29.96 "Hg

Humidity: 87%

Dew Point: 31 °F

Location of AlsfeldLocation

Past Weather in Alsfeld — Graph

°F

Alsfeld Temperature Yesterday

Maximum temperature yesterday: 50 °F (at 6:00 pm)
Minimum temperature yesterday: 31 °F (at 7:00 am)
Average temperature yesterday: 42 °F

High & Low Weather Summary for the Past Weeks

 TemperatureHumidityPressure
High59 °F (Apr 24, 4:00 pm)95% (Apr 24, 6:00 am)30.64 "Hg (Apr 24, 6:00 am)
Low26 °F (Apr 20, 7:00 am)33% (Apr 20, 6:00 pm)29.65 "Hg (Apr 25, 6:00 am)
Average44 °F66%30.12 "Hg
* Reported Apr 12 4:00 am — Apr 27 4:00 am, Alsfeld, Weather by CustomWeather, © 2017

Note: Actual official high and low records may vary slightly from our data, if they occured in-between our weather recording intervals... More about our weather records

Advertising

Alsfeld Weather History for the Previous 24 Hours

Scroll right to see more
 ConditionsComfort  
Time TempWeatherWind HumidityBarometerVisibility
4:00 am
Thu, Apr 27
35 °FPassing clouds.5 mph87%29.96 "Hg11 mi
3:00 am37 °FPassing clouds.3 mph81%29.96 "Hg12 mi
1:00 am40 °FOvercast.5 mph76%29.97 "Hg16 mi
12:00 am40 °FOvercast.2 mph76%29.96 "Hg16 mi
10:00 pm
Wed, Apr 26
43 °FOvercast.6 mph62%29.94 "Hg16 mi
9:00 pm44 °FOvercast.5 mph59%29.91 "Hg19 mi
7:00 pm49 °FPartly sunny.3 mph41%29.88 "Hg19 mi
6:00 pm50 °FPartly sunny.N/A34%29.88 "Hg19 mi
4:00 pm50 °FPartly sunny.1 mph33%29.88 "Hg19 mi
3:00 pm49 °FPartly sunny.N/A37%29.88 "Hg19 mi
1:00 pm49 °FPartly sunny.3 mph39%29.88 "Hg19 mi
12:00 pm45 °FPartly sunny.3 mph53%29.89 "Hg19 mi
10:00 am42 °FOvercast.2 mph60%29.89 "Hg16 mi
9:00 am41 °FOvercast.1 mph68%29.89 "Hg16 mi
7:00 am31 °FOvercast.N/A90%29.88 "Hg19 mi
6:00 am33 °FPassing clouds.1 mph88%29.87 "Hg19 mi
Weather by CustomWeather, © 2017

See weather overviewHow to use our weather pages